EW1687 Weather Reports


time (UTC)temp
C
wind
direction
speed
KPH
gust
KPH
rain 1hr
cm
rain 24hr
cm
rain mn
cm
humidity
%
barometer
mb
20260505140552 22 191 12.9 25.7 0.00 0.00 0.00 52 1011.5
20260505124558 19 236 4.8 19.3 0.00 0.00 0.00 60 1012.1
20260505124056 18 266 6.4 19.3 0.00 0.00 0.00 61 1012.2
20260505123557 18 237 8.0 19.3 0.00 0.00 0.00 61 1012.2
20260505123100 18 248 4.8 20.9 0.00 0.00 0.00 62 1012.1
20260505122555 18 262 6.4 20.9 0.00 0.00 0.00 63 1012.2
20260505122050 17 213 4.8 12.9 0.00 0.00 0.00 65 1012.1
20260505121624 17 231 6.4 12.9 0.00 0.00 0.00 66 1012.2
20260505121051 17 232 4.8 12.9 0.00 0.00 0.00 68 1012.0
20260505120550 16 261 4.8 11.3 0.00 0.00 0.00 70 1011.9
20260505120053 16 269 4.8 11.3 0.00 0.00 0.00 72 1011.9
20260505115549 15 246 3.2 8.0 0.00 0.00 0.00 74 1012.0
20260505115052 15 234 3.2 6.4 0.00 0.00 0.00 75 1011.8
20260505114551 15 0 0.0 1.6 0.00 0.00 0.00 76 1011.8
20260505114052 14 0 0.0 0.0 0.00 0.00 0.00 77 1011.6
20260505113551 14 0 0.0 0.0 0.00 0.00 0.00 78 1011.8
20260505113057 14 0 0.0 0.0 0.00 0.00 0.00 79 1011.6
20260505112550 14 0 0.0 0.0 0.00 0.00 0.00 79 1011.6
20260505112053 13 0 0.0 0.0 0.00 0.00 0.00 80 1011.4
20260505111554 13 0 0.0 0.0 0.00 0.00 0.00 81 1011.4
20260505111055 13 0 0.0 0.0 0.00 0.00 0.00 80 1011.4
20260505110557 13 0 0.0 0.0 0.00 0.00 0.00 81 1011.3
20260505102052 12 0 0.0 0.0 0.00 0.00 0.00 78 1010.8
20260505101602 12 0 0.0 0.0 0.00 0.00 0.00 78 1010.8
20260505101052 12 0 0.0 0.0 0.00 0.00 0.00 78 1010.7
20260505100554 12 0 0.0 0.0 0.00 0.00 0.00 78 1010.9
20260505100136 12 0 0.0 0.0 0.00 0.00 0.00 78 1010.7
20260505095556 12 0 0.0 0.0 0.00 0.00 0.00 78 1010.5
20260505095052 12 0 0.0 0.0 0.00 0.00 0.00 78 1010.7
20260505094558 12 0 0.0 0.0 0.00 0.00 0.00 78 1010.7
20260505094052 12 0 0.0 0.0 0.00 0.00 0.00 78 1010.8
20260505093552 12 0 0.0 0.0 0.00 0.00 0.00 78 1010.7
20260505093053 13 0 0.0 0.0 0.00 0.00 0.00 79 1010.8
20260505092554 12 0 0.0 0.0 0.00 0.00 0.00 78 1010.7
20260505092053 12 0 0.0 0.0 0.00 0.00 0.00 77 1010.7
20260505091616 12 0 0.0 0.0 0.00 0.00 0.00 77 1010.5
20260505091051 12 0 0.0 0.0 0.00 0.00 0.00 77 1010.5
20260505090551 13 0 0.0 0.0 0.00 0.00 0.00 76 1010.4
20260505090101 13 0 0.0 0.0 0.00 0.00 0.00 76 1010.2
20260505085555 13 0 0.0 0.0 0.00 0.00 0.00 75 1010.3
20260505085052 13 0 0.0 0.0 0.00 0.00 0.00 75 1010.2
20260505084553 13 0 0.0 0.0 0.00 0.00 0.00 75 1010.1
20260505084053 13 0 0.0 0.0 0.00 0.00 0.00 74 1010.1
20260505083557 13 0 0.0 0.0 0.00 0.00 0.00 74 1010.2
20260505083056 13 0 0.0 0.0 0.00 0.00 0.00 73 1010.3
20260505082553 14 0 0.0 0.0 0.00 0.00 0.00 73 1010.3
20260505082054 14 0 0.0 0.0 0.00 0.00 0.00 72 1010.3
20260505081554 14 0 0.0 0.0 0.00 0.00 0.00 71 1010.2
20260505081052 15 0 0.0 0.0 0.00 0.00 0.00 70 1010.3
20260505080554 15 0 0.0 0.0 0.00 0.00 0.00 69 1010.2
20260505080054 15 0 0.0 0.0 0.00 0.00 0.00 69 1010.2
20260505075552 15 0 0.0 0.0 0.00 0.00 0.00 68 1010.1
20260505075053 15 0 0.0 0.0 0.00 0.00 0.00 68 1010.2
20260505074556 15 0 0.0 0.0 0.00 0.00 0.00 68 1010.2
20260505074054 15 0 0.0 0.0 0.00 0.00 0.00 67 1010.3
20260505073555 15 0 0.0 0.0 0.00 0.00 0.00 66 1010.1
20260505073059 16 0 0.0 0.0 0.00 0.00 0.00 66 1010.1
20260505072551 16 0 0.0 0.0 0.00 0.00 0.00 65 1010.0
20260505072054 16 0 0.0 0.0 0.00 0.00 0.00 65 1010.0
20260505071556 16 0 0.0 0.0 0.00 0.00 0.00 65 1009.9
20260505071054 16 0 0.0 0.0 0.00 0.00 0.00 65 1009.9
20260505070554 16 0 0.0 0.0 0.00 0.00 0.00 64 1009.8
20260505070057 16 0 0.0 0.0 0.00 0.00 0.00 64 1009.9
20260505065553 16 0 0.0 0.0 0.00 0.00 0.00 63 1010.0
20260505065053 17 0 0.0 1.6 0.00 0.00 0.00 63 1010.0
20260505064607 17 0 0.0 1.6 0.00 0.00 0.00 62 1010.1
20260505064052 17 0 0.0 0.0 0.00 0.00 0.00 63 1010.1
20260505063553 17 0 0.0 0.0 0.00 0.00 0.00 61 1010.2
20260505063057 17 0 0.0 0.0 0.00 0.00 0.00 60 1010.2
20260505062552 17 0 0.0 8.0 0.00 0.00 0.00 60 1010.4
20260505062055 17 0 0.0 14.5 0.00 0.00 0.00 60 1010.5
20260505061556 17 193 1.6 14.5 0.00 0.00 0.00 60 1010.4
20260505061051 18 251 3.2 14.5 0.00 0.00 0.00 60 1010.3
20260505060556 18 251 3.2 14.5 0.00 0.00 0.00 59 1010.4
20260505060058 18 0 3.2 14.5 0.00 0.00 0.00 59 1010.4
20260505055551 18 250 3.2 12.9 0.00 0.00 0.00 59 1010.4
20260505055053 18 244 1.6 8.0 0.00 0.00 0.00 59 1010.3
20260505054620 18 0 1.6 11.3 0.00 0.00 0.00 59 1010.4
20260505054054 18 248 3.2 11.3 0.00 0.00 0.00 59 1010.4
20260505053554 18 223 3.2 12.9 0.00 0.00 0.00 59 1010.3
20260505053054 18 229 1.6 12.9 0.00 0.00 0.00 59 1010.4
20260505052552 18 258 4.8 12.9 0.00 0.00 0.00 59 1010.3
20260505052052 18 229 1.6 9.7 0.00 0.00 0.00 59 1010.3
20260505051552 17 278 1.6 9.7 0.00 0.00 0.00 59 1010.2
20260505051052 18 0 0.0 8.0 0.00 0.00 0.00 60 1010.2
20260505050552 18 207 0.0 8.0 0.00 0.00 0.00 59 1010.2
20260505041605 18 242 4.8 17.7 0.00 0.00 0.00 55 1010.0
20260505041052 18 255 6.4 16.1 0.00 0.00 0.00 55 1010.2
20260505040552 18 254 6.4 20.9 0.00 0.00 0.00 55 1010.1
20260505040058 18 228 9.7 24.1 0.00 0.00 0.00 55 1010.0
20260505035551 18 257 8.0 24.1 0.00 0.00 0.00 55 1010.0
20260505035053 18 215 8.0 17.7 0.00 0.00 0.00 56 1010.1
20260505034601 18 219 4.8 16.1 0.00 0.00 0.00 58 1010.1
20260505034052 17 215 4.8 16.1 0.00 0.00 0.00 59 1009.9
20260505033551 17 200 3.2 12.9 0.00 0.00 0.00 59 1010.1
20260505033054 17 258 3.2 11.3 0.00 0.00 0.00 58 1010.0
20260505032553 17 169 1.6 4.8 0.00 0.00 0.00 58 1010.0
20260505032054 17 0 0.0 3.2 0.00 0.00 0.00 57 1009.8
20260505031555 17 0 0.0 4.8 0.00 0.00 0.00 56 1010.1
20260505031051 17 0 0.0 4.8 0.00 0.00 0.00 56 1010.1
20260505030554 17 0 0.0 4.8 0.00 0.00 0.00 56 1010.1
20260505025553 17 148 1.6 11.3 0.00 0.00 0.00 55 1010.0
20260505025052 17 148 4.8 11.3 0.00 0.00 0.00 55 1009.9
20260505024601 17 148 4.8 12.9 0.00 0.00 0.00 55 1009.8
20260505024052 17 146 8.0 12.9 0.00 0.00 0.00 55 1009.7
20260505023552 17 164 6.4 11.3 0.00 0.00 0.00 54 1009.8
20260505023058 17 166 3.2 17.7 0.00 0.00 0.00 54 1010.0
20260505022554 17 149 6.4 17.7 0.00 0.00 0.00 55 1010.1
20260505022052 17 154 4.8 11.3 0.00 0.00 0.00 56 1010.1
20260505021558 17 157 1.6 11.3 0.00 0.00 0.00 55 1010.0
20260505021051 17 0 0.0 8.0 0.00 0.00 0.00 55 1010.0
20260505020551 17 146 3.2 8.0 0.00 0.00 0.00 54 1010.1
20260505015551 17 145 1.6 8.0 0.00 0.00 0.00 53 1009.9
20260505015053 17 145 3.2 11.3 0.00 0.00 0.00 53 1009.9
20260505014554 17 144 4.8 11.3 0.00 0.00 0.00 53 1009.8
20260505014100 17 147 3.2 9.7 0.00 0.00 0.00 53 1009.9
20260505013552 17 154 1.6 9.7 0.00 0.00 0.00 53 1009.8
20260505013054 17 154 3.2 11.3 0.00 0.00 0.00 52 1009.7
20260505012551 17 154 3.2 11.3 0.00 0.00 0.00 52 1009.9
20260505012054 18 155 3.2 9.7 0.00 0.00 0.00 51 1009.9
20260505011553 18 163 4.8 11.3 0.00 0.00 0.00 50 1009.9
20260505011054 18 163 6.4 11.3 0.00 0.00 0.00 49 1009.8
20260505010555 18 165 4.8 12.9 0.00 0.00 0.00 49 1009.7
20260505010111 18 185 6.4 12.9 0.00 0.00 0.00 49 1009.6
20260505005552 18 169 4.8 12.9 0.00 0.00 0.00 48 1009.5
20260505005052 18 168 6.4 12.9 0.00 0.00 0.00 47 1009.6
20260505004557 19 169 4.8 12.9 0.00 0.00 0.00 47 1009.6
20260505004052 19 182 4.8 11.3 0.00 0.00 0.00 47 1009.2
20260505003551 19 155 4.8 11.3 0.00 0.00 0.00 47 1009.2
20260505003054 19 164 6.4 14.5 0.00 0.00 0.00 46 1009.3
20260505002551 19 169 8.0 14.5 0.00 0.00 0.00 46 1009.2
20260505002052 20 161 6.4 12.9 0.00 0.00 0.00 45 1009.3
20260505001555 20 166 8.0 11.3 0.00 0.00 0.00 46 1009.4
20260505001054 20 167 6.4 11.3 0.00 0.00 0.00 45 1009.3
20260505000552 20 178 6.4 11.3 0.00 0.00 0.00 45 1009.2
20260505000101 20 169 6.4 12.9 0.00 0.00 0.00 45 1009.1
20260504235554 20 167 8.0 12.9 0.00 0.00 0.00 45 1009.0
20260504235052 20 155 8.0 14.5 0.00 0.00 0.00 44 1009.1
20260504234600 21 161 8.0 25.7 0.00 0.00 0.00 43 1009.1
20260504234051 21 157 11.3 25.7 0.00 0.00 0.00 43 1009.0
20260504233555 21 173 8.0 17.7 0.00 0.00 0.00 42 1009.0
20260504233105 21 190 8.0 19.3 0.00 0.00 0.00 43 1009.1
20260504232553 21 160 6.4 19.3 0.00 0.00 0.00 42 1009.1
20260504232052 21 204 8.0 16.1 0.00 0.00 0.00 41 1009.2
20260504231554 21 139 6.4 19.3 0.00 0.00 0.00 41 1009.1
20260504231051 21 161 4.8 19.3 0.00 0.00 0.00 41 1009.2
20260504230555 22 147 3.2 19.3 0.00 0.00 0.00 41 1009.2
20260504230114 22 188 6.4 22.5 0.00 0.00 0.00 40 1009.2
20260504225553 22 161 11.3 22.5 0.00 0.00 0.00 40 1009.2
20260504225056 22 159 4.8 19.3 0.00 0.00 0.00 40 1009.2
20260504224626 22 234 4.8 14.5 0.00 0.00 0.00 41 1009.3
20260504224052 22 171 4.8 19.3 0.00 0.00 0.00 39 1009.2
20260504223552 22 113 6.4 24.1 0.00 0.00 0.00 39 1009.4
20260504223106 22 213 11.3 24.1 0.00 0.00 0.00 41 1009.3
20260504222551 22 138 6.4 19.3 0.00 0.00 0.00 40 1009.5
20260504222051 22 215 6.4 20.9 0.00 0.00 0.00 42 1009.5
20260504221553 22 159 8.0 24.1 0.00 0.00 0.00 41 1009.4
20260504221053 22 132 6.4 24.1 0.00 0.00 0.00 40 1009.4
20260504220552 22 159 9.7 25.7 0.00 0.00 0.00 41 1009.4
20260504220100 22 220 6.4 25.7 0.00 0.00 0.00 39 1009.4
20260504215553 22 183 11.3 25.7 0.00 0.00 0.00 40 1009.5
20260504215054 22 0 9.7 25.7 0.00 0.00 0.00 39 1009.3
20260504214555 22 212 11.3 25.7 0.00 0.00 0.00 39 1009.4
20260504214055 22 168 12.9 25.7 0.00 0.00 0.00 40 1009.6
20260504213551 22 146 11.3 24.1 0.00 0.00 0.00 40 1009.4
20260504213102 22 142 6.4 22.5 0.00 0.00 0.00 39 1009.4
20260504212557 22 194 8.0 30.6 0.00 0.00 0.00 40 1009.4
20260504212055 22 209 8.0 33.8 0.00 0.00 0.00 37 1009.5
20260504211604 22 119 17.7 33.8 0.00 0.00 0.00 39 1009.5
20260504211053 22 146 16.1 32.2 0.00 0.00 0.00 42 1009.3
20260504210557 22 155 8.0 32.2 0.00 0.00 0.00 39 1009.4
20260504205554 23 214 8.0 25.7 0.00 0.00 0.00 39 1009.4
20260504205050 23 157 14.5 25.7 0.00 0.00 0.00 39 1009.3
20260504204605 22 217 4.8 37.0 0.00 0.00 0.00 38 1009.2
20260504204057 22 220 12.9 37.0 0.00 0.00 0.00 38 1009.5
20260504203555 22 151 6.4 27.4 0.00 0.00 0.00 39 1009.3
20260504203056 22 170 11.3 24.1 0.00 0.00 0.00 38 1009.6
20260504202554 22 214 11.3 24.1 0.00 0.00 0.00 39 1009.6
20260504202124 22 86 12.9 25.7 0.00 0.00 0.00 42 1009.6
20260504201610 22 143 11.3 25.7 0.00 0.00 0.00 40 1009.7
20260504201053 22 158 8.0 19.3 0.00 0.00 0.00 38 1009.6
20260504200551 22 236 6.4 24.1 0.00 0.00 0.00 38 1009.9
20260504195551 22 221 6.4 24.1 0.00 0.00 0.00 39 1010.0
20260504195055 22 202 8.0 22.5 0.00 0.00 0.00 39 1010.1
20260504194555 22 144 6.4 27.4 0.00 0.00 0.00 39 1010.0
20260504194054 22 249 11.3 30.6 0.00 0.00 0.00 41 1010.2
20260504193551 22 182 17.7 30.6 0.00 0.00 0.00 40 1010.2
20260504193053 22 142 6.4 17.7 0.00 0.00 0.00 40 1010.3
20260504192555 22 186 6.4 22.5 0.00 0.00 0.00 40 1010.2
20260504192051 22 261 12.9 22.5 0.00 0.00 0.00 38 1010.6
20260504191610 22 205 8.0 22.5 0.00 0.00 0.00 39 1010.7
20260504191054 22 177 12.9 30.6 0.00 0.00 0.00 39 1010.7
20260504190554 22 139 11.3 30.6 0.00 0.00 0.00 41 1010.7
20260504190056 21 141 11.3 25.7 0.00 0.00 0.00 42 1010.8
20260504185553 21 217 12.9 25.7 0.00 0.00 0.00 42 1010.8
20260504185050 21 250 9.7 29.0 0.00 0.00 0.00 40 1010.9
20260504184553 21 202 6.4 30.6 0.00 0.00 0.00 43 1011.0
20260504184052 21 163 17.7 30.6 0.00 0.00 0.00 41 1011.0
20260504183552 21 241 12.9 30.6 0.00 0.00 0.00 38 1011.3
20260504183053 21 252 12.9 30.6 0.00 0.00 0.00 44 1011.4
20260504182552 21 266 8.0 25.7 0.00 0.00 0.00 41 1011.4
20260504182051 21 146 14.5 25.7 0.00 0.00 0.00 40 1011.4
20260504181553 21 225 4.8 24.1 0.00 0.00 0.00 40 1011.5
20260504181051 21 254 9.7 24.1 0.00 0.00 0.00 43 1011.6
20260504180553 21 162 8.0 22.5 0.00 0.00 0.00 41 1011.5
20260504180055 21 0 8.0 19.3 0.00 0.00 0.00 44 1011.6
20260504175551 21 222 6.4 22.5 0.00 0.00 0.00 43 1011.8
20260504175054 20 219 8.0 27.4 0.00 0.00 0.00 42 1011.8
20260504174557 20 165 16.1 29.0 0.00 0.00 0.00 43 1011.8
20260504174051 21 149 16.1 29.0 0.00 0.00 0.00 42 1011.9
20260504173553 21 243 3.2 22.5 0.00 0.00 0.00 42 1012.0
20260504173058 20 150 8.0 22.5 0.00 0.00 0.00 44 1012.1
20260504172550 20 256 6.4 22.5 0.00 0.00 0.00 44 1012.0
20260504172050 20 234 8.0 22.5 0.00 0.00 0.00 43 1012.0
20260504171552 20 227 8.0 22.5 0.00 0.00 0.00 41 1012.1
20260504171052 20 212 8.0 20.9 0.00 0.00 0.00 42 1012.1
20260504170552 20 238 9.7 20.9 0.00 0.00 0.00 41 1012.2
20260504151051 18 253 8.0 24.1 0.00 0.00 0.00 43 1013.7
20260504150554 18 299 9.7 30.6 0.00 0.00 0.00 44 1013.6